Zurück zum Katalog

STARLINK-36321

AktivKommunikationVLEO
NORAD 68046·PAYLOAD·🇺🇸 United States

Gestartet Mar 2, 2026 von Vandenberg Space Force Base

Loading…

Nächste Überflüge (nächste 24 Stunden)

TLE

AktuellSource: CelesTrak SupGP

Epoche: Sep 14, 2026, 21:31 UTC

1 68046C 26041G   26257.89701389  .00052810  00000+0  15595-2 0  2573
2 68046  53.1582 247.7509 0001060  86.9178 249.2870 15.34379478    14

Verfolge STARLINK-36321 in Echtzeit mit AllMySat

Download on the App Store